This demonstration page uses our WeatherBlox Daily Observations layout. Learn more.

38.89511, -77.03637

Hourly Observations for September 7, 2019

Temp ( °F °C ) Dew Point ( °F °C ) Humidity (%) Winds ( mph kmh ) Pressure ( in mb ) Visibility ( mi km ) Precip ( " mm )
12:52 am 00:52 Mostly Clear 68 20 55 12.8 63 63 NNE 6 9 29.83 1010 10 16.09344 0 0
1:52 am 01:52 Mostly Clear 67 19.4 58 14.4 73 73 ENE 3 6 29.8 1009 10 16.09344 0 0
2:52 am 02:52 Mostly Clear 66 18.9 58 14.4 75 75 E 6 9 29.8 1009 10 16.09344 0 0
3:52 am 03:52 Mostly Clear 65 18.3 58 14.4 78 78 Calm 29.83 1010 10 16.09344 0 0
4:52 am 04:52 Mostly Clear 64 17.8 58 14.4 81 81 Calm 29.83 1010 10 16.09344 0 0
5:52 am 05:52 Mostly Clear 65 18.3 57 13.9 76 76 Calm 29.83 1010 10 16.09344 0 0
6:52 am 06:52 Mostly Sunny 64 17.8 58 14.4 81 81 SW 3 6 29.85 1011 10 16.09344 0 0
7:52 am 07:52 Sunny 66 18.9 60 15.6 81 81 Calm 29.85 1011 10 16.09344 0 0
8:52 am 08:52 Sunny 71 21.7 60 15.6 68 68 VRB 5 7 29.88 1012 10 16.09344 0 0
9:52 am 09:52 Sunny 75 23.9 58 14.4 55 55 NW 13 20 29.88 1012 10 16.09344 0 0
10:52 am 10:52 Mostly Sunny 77 25 58 14.4 52 52 NW 12 19 29.88 1012 10 16.09344 0 0
11:52 am 11:52 Mostly Sunny 80 26.7 57 13.9 45 45 N 8 13 29.88 1012 10 16.09344 0 0
12:52 pm 12:52 Partly Cloudy 81 27.2 54 12.2 39 39 VRB 7 11 29.88 1012 10 16.09344 0 0
1:52 pm 13:52 Mostly Sunny 83 28.3 55 12.8 38 38 N 12 19 29.88 1012 10 16.09344 0 0
2:52 pm 14:52 Partly Cloudy 84 28.9 54 12.2 36 36 N 12 19 29.85 1011 10 16.09344 0 0
3:52 pm 15:52 Partly Cloudy 86 30 54 12.2 33 33 NNW 16 26 29.85 1011 10 16.09344 0 0
4:34 pm 16:34 Partly Cloudy 85 29.4 54 12.2 35 35 NW 10 17 29.88 1012 10 16.09344 0 0
4:52 pm 16:52 Partly Cloudy 84 28.9 54 12.2 36 36 WNW 9 15 29.85 1011 10 16.09344 0 0
5:52 pm 17:52 Partly Cloudy 83 28.3 54 12.2 37 37 NNW 12 19 29.85 1011 10 16.09344 0 0
6:52 pm 18:52 Mostly Cloudy 80 26.7 54 12.2 41 41 N 12 19 29.91 1013 10 16.09344 0 0
7:52 pm 19:52 Partly Cloudy 77 25 55 12.8 47 47 NNW 7 11 29.91 1013 10 16.09344 0 0
8:52 pm 20:52 Mostly Clear 77 25 55 12.8 47 47 NNW 5 7 29.91 1013 10 16.09344 0 0
9:52 pm 21:52 Mostly Clear 74 23.3 56 13.3 54 54 Calm 29.94 1014 10 16.09344 0 0
10:52 pm 22:52 Mostly Clear 72 22.2 60 15.6 66 66 VRB 3 6 29.94 1014 10 16.09344 0 0
11:52 pm 23:52 Partly Cloudy 71 21.7 57 13.9 61 61 SSW 3 6 29.97 1015 10 16.09344 0 0

Powered by AerisWeather